Regional Weather Roundup
Issued by NWS

Home | Current Version | Previous Version | Text Only | Print | Product List | Glossary Off
Versions: 1 2 3 4 5 6 7 8 9 10 11 12 13 14 15 16 17 18 19 20 21 22 23 24 25 26 27 28 29 30 31 32 33 34 35 36 37 38 39 40 41 42 43 44 45 46 47 48 49 50

133
ASUS43 KLSX 231607
RWRMO

WEATHER SUMMARY FOR MISSOURI
NATIONAL WEATHER SERVICE SPRINGFIELD MO
1000 AM CST MON JAN 23 2017

NOTE: "FAIR" INDICATES FEW OR NO CLOUDS BELOW 12,000 FEET WITH NO
       SIGNIFICANT WEATHER AND/OR OBSTRUCTIONS TO VISIBILITY.
       CURRENT SKY AND/OR WEATHER CONDITIONS ARE NOT AVAILABLE FOR
       CHILLICOTHE AND FARMINGTON.

MOZ001>031-035>038-043-044-053-054-231700-
...NORTHERN AND WESTERN MISSOURI...

CITY           SKY/WX    TMP DP  RH WIND       PRES   REMARKS
KANSAS CTY INT CLOUDY    32  30  92 N6        29.91R FOG     WCI  26
KANSAS C DTWN  CLOUDY    34  32  92 NW5       29.92R FOG     WCI  30
LEE`S SUMMIT   CLOUDY    32  32 100 NW7       29.92R FOG     WCI  26
ST JOSEPH      CLOUDY    32  31  96 NW8       29.93R FOG     WCI  25
CHILLICOTHE      N/A     35  30  82 N3        29.93R
KIRKSVILLE     CLOUDY    34  32  92 NW6       29.89R WCI  29

$$
MOZ066>068-077>081-088>096-101>105-231700-
...SOUTHWEST MISSOURI...

CITY           SKY/WX    TMP DP  RH WIND       PRES   REMARKS
SPRINGFIELD    CLOUDY    38  35  89 NW6       29.89S FOG
JOPLIN         MOSUNNY   39  36  89 CALM      29.92R
BRANSON        CLOUDY    39  36  87 NW8       29.90S

$$
MOZ032>034-039>042-045>050-055>058-069>072-231700-
...CENTRAL MISSOURI...

CITY           SKY/WX    TMP DP  RH WIND       PRES   REMARKS
COLUMBIA       CLOUDY    40  34  79 NW13      29.88R
JEFFERSON CITY CLOUDY    40  35  83 NW8       29.90R
ROLLA          CLOUDY    39  35  86 N13       29.86R
SEDALIA        CLOUDY    36  34  92 NW7       29.93R
WHITEMAN AFB   CLOUDY    33  33 100 NW6       29.91S FOG     WCI  28
WARRENSBURG    CLOUDY    32  32 100 CALM      29.92S
OSAGE BEACH    CLOUDY    39  35  86 VRB5      29.91R

$$
MOZ051-052-059>065-231700-
...EAST CENTRAL MISSOURI...

CITY           SKY/WX    TMP DP  RH WIND       PRES   REMARKS
ST LOUIS INTL  CLOUDY    43  35  73 NW10      29.84R
SPIRIT OF STL  CLOUDY    43  36  76 NW10      29.85R
ST CHARLES     CLOUDY    42  35  76 N10       29.84R

$$
MOZ072>076-082>087-097>100-106>115-231700-
...SOUTH CENTRAL AND SOUTHEAST MISSOURI...

CITY           SKY/WX    TMP DP  RH WIND       PRES   REMARKS
CAPE GIRARDEAU CLOUDY    44  35  70 N18       29.80R
FARMINGTON     CLOUDY    42  34  73 NW15G21   29.82R
POPLAR BLUFF   MOSUNNY   46  36  68 N21       29.81R
WEST PLAINS    CLOUDY    42  35  76 N9        29.87R

$$



USA.gov is the U.S. government's official web portal to all federal, state and local government web resources and services.